This is the latest recevied weather packets stored in our database for station/object VE6KEE-13. If no packets are shown the sender has not sent any weather packets the latest 10 day(s).
| Time | Temp. | Humidity | Pressure | Rain* | Wind** | Luminosity | Snow |
|---|---|---|---|---|---|---|---|
| 1777755741 | 23.89° C | 18% | 1018.8 hPa | 0 mm | - | - | - |
| 1777754840 | 23.89° C | 18% | 1018.9 hPa | 0 mm | - | - | - |
| 1777753947 | 23.33° C | 18% | 1019.1 hPa | 0 mm | - | - | - |
| 1777753038 | 23.33° C | 18% | 1019.4 hPa | 0 mm | - | - | - |
| 1777752137 | 22.78° C | 19% | 1019.6 hPa | 0 mm | - | - | - |
| 1777751237 | 22.78° C | 20% | 1019.9 hPa | 0 mm | - | - | - |
| 1777750337 | 21.67° C | 21% | 1019.9 hPa | 0 mm | - | - | - |
| 1777749435 | 21.11° C | 22% | 1020.1 hPa | 0 mm | - | - | - |
| 1777748542 | 21.11° C | 24% | 1020.2 hPa | 0 mm | - | - | - |
| 1777747634 | 20° C | 25% | 1020.5 hPa | 0 mm | - | - | - |
| 1777746733 | 20° C | 24% | 1020.5 hPa | 0 mm | - | - | - |
| 1777745836 | 20° C | 25% | 1020.6 hPa | 0 mm | - | - | - |
| 1777744931 | 20.56° C | 26% | 1020.7 hPa | 0 mm | - | - | - |
| 1777744031 | 20.56° C | 27% | 1020.8 hPa | 0 mm | - | - | - |
| 1777743136 | 20° C | 28% | 1020.8 hPa | 0 mm | - | - | - |
| 1777742229 | 18.89° C | 30% | 1020.9 hPa | 0 mm | - | - | - |
| 1777741328 | 18.89° C | 30% | 1021 hPa | 0 mm | - | - | - |
| 1777740431 | 19.44° C | 30% | 1021 hPa | 0 mm | - | - | - |
| 1777739527 | 19.44° C | 31% | 1020.9 hPa | 0 mm | - | - | - |
| 1777738626 | 18.33° C | 33% | 1021 hPa | 0 mm | - | - | - |
| 1777737726 | 17.78° C | 34% | 1020.9 hPa | 0 mm | - | - | - |
| 1777736824 | 17.78° C | 34% | 1021 hPa | 0 mm | - | - | - |
| 1777735924 | 17.78° C | 35% | 1021 hPa | 0 mm | - | - | - |
| 1777735023 | 17.22° C | 37% | 1020.8 hPa | 0 mm | - | - | - |
| 1777734123 | 16.67° C | 38% | 1020.9 hPa | 0 mm | - | - | - |
* Rain since midnight (hover to see other rain measurements)
** Current wind speed in m/s (hover to see current wind gust speed)